www.pogodaiklimat.ru

Погода и климат >> Архив погоды >> Австралия >> Тасмания >> Остров Лорд-Хоу


ПОГОДА на Острове Лорд-Хоу

  • Прогноз погоды на Острове Лорд-Хоу
  • Монитор погоды на Острове Лорд-Хоу

АРХИВ ПОГОДЫ на Острове Лорд-Хоу

Время (UTC), дата Ветер
(напр.,м/с)
 
Видим.   Явления Облачность Т
(С)
Тd
(С)
f
(%)
Тe
(С)
Тes
(С)
Комфортность P
(гПа)
Po
(гПа)
Тmin
(С)
Tmax
(С)
R
(мм)
R24
(мм)
S
(см)
19 16.07 ЮЗ 7 н/о {туман} 10/10 600 м
[]
+17.0 +12.5 75 +16 +16 1014.2 1013.4
21 16.07 ЮЗ 7 н/о н/о +17.7 +12.4 71 +17 +17 1014.9 1014.1
22 16.07 ЮЗ 6 н/о 5/5 600 м
[]
+18.0 +12.7 71 +17 +18 1015.7 1014.9
00 17.07 ЮЗ 7 н/о н/о +18.6 +13.0 70 +19 +19 1015.9 1015.1
01 17.07 З 8 н/о 4/4 600 м
[]
+18.9 +12.9 68 +19 +20 1014.8 1014.0 +16.2
03 17.07 ЮЗ 8 н/о н/о +18.8 +12.1 65 +19 +19 1013.8 1013.0
04 17.07 ЮЗ 5 н/о н/о +18.6 +13.0 70 +19 +19 1013.6 1012.8
06 17.07 ЮЗ 5 н/о н/о +18.0 +12.0 68 +18 +18 1013.9 1013.1
07 17.07 ЮЗ 2 н/о 8/8 1000 м
[]
+15.1 +10.9 76 +15 +15 1014.3 1013.5
09 17.07 З 5 н/о н/о +17.9 +12.8 72 +18 +18 1014.7 1013.9
10 17.07 З 5 н/о 10/10 600 м
[]
+17.5 +12.6 73 +17 +17 1014.6 1013.8
12 17.07 З 7 н/о н/о +17.4 +12.5 73 +16 +16 1014.4 1013.6
13 17.07 З 7 н/о 1/0 2000 м
[]
+17.6 +12.5 72 +17 +17 1013.5 1012.7 +19.3
15 17.07 З 7 н/о н/о +17.4 +12.1 71 +16 +16 1012.6 1011.8
16 17.07 З 6 н/о 10/10 600 м
[]
+18.1 +13.0 72 +18 +18 1011.6 1010.8
18 17.07 З 10 н/о н/о +18.5 +12.3 67 +18 +18 1010.5 1009.7
19 17.07 З 6 н/о 10/10 1500 м
[]
+17.9 +12.4 70 +17 +17 1010.4 1009.6
21 17.07 З 6 н/о н/о +17.8 +12.3 70 +17 +17 1010.2 1009.4
22 17.07 ЮЗ 11 н/о 10/10 300 м
[]
+15.9 +11.7 76 +14 +14 1011.1 1010.3
00 18.07 З 8 н/о н/о +15.1 +12.2 83 +13 +13 1010.6 1009.8
01 18.07 ЮЗ 9 н/о 10/10 600 м
[]
+18.4 +12.4 68 +18 +18 1009.5 1008.7 +14.1
03 18.07 ЮЗ 10 н/о н/о +18.4 +11.7 65 +18 +18 1008.6 1007.8
04 18.07 ЮЗ 8 н/о 3/3 1000 м
[]
+17.9 +11.7 67 +17 +17 1008.9 1008.1
06 18.07 ЮЗ 10 н/о н/о +18.0 +11.6 66 +17 +17 1009.5 1008.7
07 18.07 ЮЗ 8 н/о {туман} 10/10 1000 м
[]
+17.6 +12.1 70 +17 +17 1010.4 1009.6
09 18.07 ЮЗ 8 н/о н/о +16.6 +11.9 74 +15 +15 1012.1 1011.3
10 18.07 ЮЗ 8 н/о {туман} 1/1 1000 м
[]
+16.7 +9.6 63 +15 +15 1012.7 1011.9
12 18.07 ЮЗ 8 н/о н/о +17.1 +10.2 64 +16 +16 1013.0 1012.2
13 18.07 ЮЗ 9 н/о 1/1 1000 м
[]
+17.2 +9.9 62 +16 +16 1013.3 1012.5 +19.1
15 18.07 ЮЗ 8 н/о н/о +17.2 +11.0 67 +16 +16 1013.2 1012.4
16 18.07 ЮЗ 8 н/о 10/10 1000 м
[]
+16.2 +11.2 72 +15 +15 1013.5 1012.7
18 18.07 ЮЗ 7 н/о н/о +16.9 +9.3 61 +16 +16 1013.6 1012.8
19 18.07 ЮЗ 7 н/о 1/1 1000 м
[]
+16.8 +8.8 59 +16 +16 1014.7 1013.9
21 18.07 ЮЗ 6 н/о н/о +17.1 +8.3 56 +16 +16 1016.0 1015.2
22 18.07 ЮЗ 5 н/о {туман} 5/5 1500 м
[]
+17.9 +8.5 54 +17 +18 1017.0 1016.2
00 19.07 ЮЗ 6 н/о н/о +18.5 +9.8 57 +18 +18 1017.4 1016.6
01 19.07 ЮЗ 6 н/о 1/1 1500 м
[]
+18.3 +8.8 54 +18 +21 1017.0 1016.2 +14.8
03 19.07 ЮЗ 6 н/о н/о +18.2 +9.0 55 +18 +18 1016.6 1015.8
04 19.07 ЮЗ 5 н/о 1/1 1000 м
[]
+18.1 +9.7 58 +18 +20 1016.7 1015.9
06 19.07 ЮЗ 5 н/о н/о +17.6 +10.2 62 +17 +17 1016.8 1016.0
07 19.07 ЮЗ 5 н/о 1/1 1000 м
[]
+17.4 +10.5 64 +17 +17 1017.5 1016.7
09 19.07 ЮЗ 7 н/о н/о +17.9 +8.2 53 +17 +17 1018.3 1017.5
10 19.07 ЮЗ 6 н/о н/о +17.8 +9.4 58 +17 +17 1018.6 1017.8
12 19.07 ЮЗ 8 н/о н/о +18.0 +10.9 63 +17 +17 1018.9 1018.1
13 19.07 ЮЗ 7 н/о 6/6 1000 м
[]
+17.5 +9.4 59 +17 +17 1018.9 1018.1 +18.8
15 19.07 ЮЗ 6 н/о н/о +17.7 +11.7 68 +17 +17 1019.0 1018.2
16 19.07 ЮЗ 6 н/о 8/8 1000 м
[]
+17.3 +10.0 62 +17 +17 1018.9 1018.1
18 19.07 ЮЗ 6 н/о н/о +17.1 +8.8 58 +16 +16 1019.1 1018.3
19 19.07 ЮЗ 6 20 км 4/4 1000 м
[Cu Sc]
+16.8 +7.7 55 +16 +16 1020.1 1019.3
21 19.07 Ю 6 н/о н/о +16.6 +10.0 65 +16 +16 1021.2 1020.4
22 19.07 ЮЗ 4 25 км 5/5 1000 м
[Cu Sc]
+17.1 +8.5 57 +17 +18 1022.1 1021.3
00 20.07 ЮЗ 4 н/о н/о +18.2 +9.8 58 +18 +18 1022.1 1021.3
01 20.07 ЮЗ 5 н/о 3/3 1000 м
[]
+17.9 +8.7 55 +18 +21 1021.5 1020.7 +16.3
03 20.07 ЮЗ 5 н/о н/о +18.0 +8.6 54 +18 +18 1020.4 1019.6
04 20.07 ЮЗ 5 25 км 6/6 1000 м
[Cu Sc]
+17.7 +9.1 57 +17 +18 1020.7 1019.9
06 20.07 ЮЗ 5 н/о н/о +17.3 +8.4 56 +17 +17 1021.0 1020.2
07 20.07 ЮЗ 4 н/о 8/8 1000 м
[]
+17.4 +10.5 64 +17 +17 1021.3 1020.5
09 20.07 Ю 3 н/о н/о +17.1 +9.3 60 +17 +17 1022.0 1021.2
10 20.07 Ю 3 н/о 8/8 1000 м
[]
+17.1 +8.5 57 +17 +17 1022.1 1021.3
12 20.07 Ю 3 н/о н/о +16.7 +8.4 58 +17 +17 1022.2 1021.4
13 20.07 ЮЗ 4 н/о 10/10 1000 м
[]
+17.5 +9.9 61 +17 +17 1021.7 1020.9 +18.8
15 20.07 Ю 3 н/о н/о +17.0 +9.4 61 +17 +17 1021.5 1020.7
18 20.07 ЮВ 2 н/о н/о +16.3 +8.0 58 +16 +16 1021.0 1020.2
19 20.07 Ю 1 18 км 9/9 1000 м
[Sc]
+16.1 +8.6 61 +17 +17 1021.3 1020.5
21 20.07 Ю 2 н/о н/о +16.3 +9.9 66 +17 +17 1022.1 1021.3
22 20.07 Ю 3 н/о 9/9 1000 м
[]
+17.6 +10.0 61 +18 +18 1022.5 1021.7
00 21.07 ЮЗ 3 н/о н/о +18.3 +10.4 60 +19 +19 1022.6 1021.8
01 21.07 ЮЗ 4 н/о 10/10 1000 м
[]
+18.2 +9.8 58 +18 +18 1021.5 1020.7 +15.1
03 21.07 З 4 н/о н/о +19.1 +9.6 54 +20 +20 1019.9 1019.1
04 21.07 З 4 н/о 4/4 1000 м
[]
+18.5 +9.0 54 +19 +21 1020.2 1019.4
06 21.07 З 2 н/о н/о +17.5 +8.4 55 +18 +18 1020.3 1019.5
07 21.07 ЮЗ 2 н/о 10/10 1000 м
[]
+16.2 +8.4 60 +17 +17 1020.6 1019.8
09 21.07 штиль 0 н/о н/о +14.9 +8.6 66 +15 +15 1021.2 1020.4
10 21.07 штиль 0 н/о 5/5 1500 м
[]
+13.1 +7.1 67 +13 +13 1021.3 1020.5
12 21.07 С 1 н/о н/о +12.6 +6.9 68 +13 +13 1021.3 1020.5
13 21.07 штиль 0 н/о н/о +10.3 +5.7 73 +10 +10 1021.1 1020.3 +19.6
15 21.07 С 3 н/о н/о +15.3 +10.1 71 +15 +15 1020.7 1019.9
16 21.07 С 4 н/о н/о +16.2 +7.2 55 +16 +16 1020.0 1019.2
18 21.07 С 1 н/о н/о +14.4 +7.7 64 +15 +15 1020.0 1019.2
21 21.07 СЗ 2 н/о н/о +15.9 +8.9 63 +16 +16 1021.2 1020.4
22 21.07 СЗ 3 н/о 6/6 1500 м
[]
+19.4 +9.0 51 +21 +22 комфорт 1021.5 1020.7
00 22.07 СЗ 3 н/о н/о +19.7 +9.9 53 +21 +21 комфорт 1021.4 1020.6
01 22.07 СЗ 3 н/о 10/10 1500 м
[]
+20.2 +9.7 51 +22 +22 комфорт 1020.4 1019.6 +9.8
03 22.07 З 4 н/о н/о +19.5 +8.2 48 +20 +20 1019.5 1018.7
04 22.07 СЗ 3 н/о 9/0 2000 м
[]
+19.4 +9.0 51 +21 +23 комфорт 1019.1 1018.3
06 22.07 СЗ 2 н/о н/о +18.3 +8.6 53 +19 +19 1019.1 1018.3
09 22.07 штиль 0 н/о н/о +14.0 +8.2 68 +14 +14 1020.3 1019.5
10 22.07 С 1 н/о н/о +13.9 +8.1 68 +14 +14 1020.2 1019.4
12 22.07 С 1 н/о н/о +14.0 +8.0 67 +15 +15 1020.5 1019.7
13 22.07 С 1 н/о н/о +13.9 +8.9 72 +15 +15 1020.6 1019.8 +20.8
15 22.07 СЗ 1 н/о н/о +14.2 +8.4 68 +15 +15 1020.1 1019.3
16 22.07 СЗ 2 н/о н/о +14.6 +8.5 67 +15 +15 1019.8 1019.0
18 22.07 штиль 0 н/о н/о +13.7 +8.5 71 +13 +13 1019.6 1018.8
21 22.07 штиль 0 н/о н/о +15.4 +11.0 75 +15 +15 1021.2 1020.4
22 22.07 СЗ 3 н/о н/о +19.8 +12.1 61 +22 +22 комфорт 1021.4 1020.6
00 23.07 З 3 н/о н/о +21.0 +12.7 59 +24 +24 комфорт 1021.2 1020.4
01 23.07 З 4 н/о 5/0 2000 м
[]
+20.6 +12.3 59 +23 +23 комфорт 1020.7 1020.0 +12.1
02 23.07 З 3 н/о н/о +19.9 +11.9 60 +22 +22 комфорт 1020.0 1019.3
03 23.07 З 4 н/о н/о +21.1 +12.3 57 +23 +23 комфорт 1019.4 1018.6
04 23.07 З 3 н/о н/о +21.3 +12.7 58 +24 +24 комфорт 1019.4 1018.6
05 23.07 З 4 н/о н/о +20.1 +12.8 63 +22 +22 комфорт 1019.2 1018.4
06 23.07 СЗ 2 н/о н/о +18.8 +11.9 64 +20 +20 1019.3 1018.5
07 23.07 штиль 0 н/о 10/10 1000 м
[]
+16.7 +11.2 70 +17 +17 1019.7 1018.9
08 23.07 штиль 0 н/о н/о +15.8 +11.2 74 +16 +16 1019.9 1019.1
09 23.07 СЗ 2 н/о н/о +17.6 +13.1 75 +18 +18 1020.2 1019.4
10 23.07 штиль 0 н/о н/о +16.0 +11.6 75 +16 +16 1020.4 1019.6
11 23.07 С 2 н/о н/о +16.9 +12.4 75 +17 +17 1020.8 1020.0
12 23.07 СЗ 3 н/о н/о +17.5 +13.0 75 +18 +18 1020.7 1019.9
13 23.07 С 2 н/о н/о +17.2 +12.9 76 +18 +18 1020.4 1019.6 +21.6
14 23.07 С 4 н/о н/о +17.3 +13.2 77 +17 +17 1019.9 1019.1
15 23.07 С 4 н/о н/о +18.0 +13.1 73 +18 +18 1019.6 1018.8
16 23.07 С 2 н/о н/о +17.7 +13.0 74 +18 +18 1019.2 1018.4
17 23.07 СЗ 3 н/о н/о +18.2 +13.5 74 +19 +19 1018.8 1018.0
18 23.07 СЗ 4 н/о н/о +18.4 +12.8 70 +19 +19 1018.6 1017.8
19 23.07 СЗ 3 н/о н/о +18.3 +12.7 70 +19 +19 1018.4 1017.6

 

Местоположение метеостанции Остров Лорд-Хоу (Тасмания, Австралия): широта -31.53 долгота 159.06 высота над уровнем моря 7 м.

В архиве по умолчанию представлена погода на Острове Лорд-Хоу за последнюю неделю. Архивные данные за месяц целиком и за предыдущие месяцы, начиная с января 2011 года, Вы можете получить, выбрав интересующий диапазон дат из раскрывающегося списка и нажав кнопку "Ввод!".


*Определитесь, кто Вы:
робот инопланетянин человек

Внимание! Время в таблицах - всемирное. Для получения местного времени необходимо прибавить поправку, которая равна 10 ч.

Смотрите также архив погоды в соседних городах и на ближайших метеорологических станциях:

Погода на Острове Лорд-Хау (Новый Южный Уэльс, Австралия) (1 км)
Погода в Кофс-Харборе (Новый Южный Уэльс, Австралия) (584 км)
Погода в Порт Маккуори аэропорту (Новый Южный Уэльс, Австралия) (589 км)
Погода в Ямбе (Новый Южный Уэльс, Австралия) (593 км)
Погода в Кемпси (Новый Южный Уэльс, Австралия) (600 км)
Погода в Эванс Хед (Новый Южный Уэльс, Австралия) (603 км)
Погода в Баллине (Новый Южный Уэльс, Австралия) (609 км)
Погода в Графтон аэропорту (Новый Южный Уэльс, Австралия) (610 км)
Погода на Мысе Байрон (Новый Южный Уэльс, Австралия) (614 км)
Погода в Тари (Новый Южный Уэльс, Австралия) (620 км)

Пояснения к столбцам:

Ветер - указаны скорость ветра в м/с - средняя за 10 мин, порывы в срок и между сроками (в фигурных скобках) и направление, откуда дует ветер: С - северный, СВ - северо-восточный, В - восточный, ЮВ - юго-восточный, Ю - южный, ЮЗ - юго-западный, З - западный, СЗ - северо-западный.
Видимость - горизонтальная дальность видимости в метрах или километрах. При видимости от 1 до 10 км при отсутствии осадков обычно наблюдается дымка, при ухудшении видимости до 1 км и менее - туман. В сухую погоду видимость может ухудшаться дымом, пылью или мглою.
Явления - указаны атмосферные явления, наблюдавшиеся в срок или в последний час перед сроком; фигурными скобками обозначены явления, наблюдавшиеся между сроками (за 1-3 часа до срока); квадратными скобками обозначены град или гололедные отложения с указанием их диаметра в мм.
Облачность - указаны через наклонную черту общая и нижняя облачность в баллах и высота нижней границы облаков в метрах; квадратными скобками обозначены формы облаков: Ci - перистые, Cs - перисто-слоистые, Cc - перисто-кучевые, Ac - высококучевые, As - высокослоистые, Sc - слоисто-кучевые, Ns - слоисто-дождевые, Cu - кучевые, Cb - кучево-дождевые. Подробнее классификацию облаков см. в Атласе облаков (PDF).
T - Температура воздуха - температура, измеренная на высоте 2 м над землей.
Td - Температура точки росы - температура, при понижении до которой содержащийся в воздухе водяной пар достигнет насыщения.
f - Относительная влажность воздуха - влажноcть воздуха, измеренная на высоте 2 м над землей.
Te - Эффективная температура - температура, которую ощущает одетый по сезону человек в тени. Характеристика душности погоды. При расчете учитывается влияние влажности воздуха и скорости ветра на теплоощущения человека.
Tes - Эффективная температура на солнце - температура, которую ощущает человек, с поправкой на солнечный нагрев. Характеристика знойности погоды. Зависит от высоты солнца над горизонтом, облачности и скорости ветра. Ночью, в пасмурную погоду, а также при ветре 12 м/с и более поправка равна нулю.
P - Атмосферное давление - приведенное к уровню моря атмосферное давление.
Po - Атмосферное давление - измеренное на уровне метеостанции атмосферное давление.
Tmin - Минимальная температура - минимум температуры воздуха на высоте 2 м над землей.
Tmax - Максимальная температура - максимум температуры воздуха на высоте 2 м над землей.
R - Количество осадков - Количество выпавших осадков за период времени, мм. При наведении курсора мыши на число - период времени, за который выпало указанное количество осадков.
R24 - Количество осадков - Количество выпавших осадков за 24 часа, мм.
S - Снежный покров - Высота снежного покрова, см. При наведении курсора мыши на число - состояние снежного покрова и степень покрытия местности в баллах.